61,28/09/2015 12:05,1443441910,59.80689,-3.70975,3,3,28/09/2015 12:05,1443441908,12.286,8,11,0,0,59.8467,-3.7939,3,4
62,28/09/2015 13:07,1443445621,59.85389,-3.78559,3,3,28/09/2015 13:05,1443445516,12.329,27,11,0,0,59.8526,-3.8059,113,5
63,28/09/2015 14:06,1443449198,59.85592,-3.71436,2,2,28/09/2015 14:05,1443449115,12.329,27,11,0,0,59.8568,-3.8228,91,5
64,28/09/2015 15:05,1443452711,59.98586,-6.46688,160,4,28/09/2015 15:05,1443452712,12.286,27,11,0,0,59.858,-3.8419,3,5
65,28/09/2015 16:06,1443456382,59.88281,-3.86161,2,2,28/09/2015 16:05,1443456310,12.329,27,11,0,0,59.8562,-3.8562,75,5
66,28/09/2015 17:05,1443459908,59.83167,-3.928,785,4,28/09/2015 17:05,1443459916,12.329,28,11,0,0,59.8568,-3.8646,3,4
67,28/09/2015 18:05,1443463519,59.85389,-3.78559,2,2,28/09/2015 18:05,1443463515,12.286,28,11,0,0,59.8577,-3.8583,3,2
68,28/09/2015 19:06,1443467182,59.79722,-2.85173,87,3,28/09/2015 19:05,1443467137,12.286,28,11,0,0,59.8593,-3.8397,75,4
69,28/09/2015 20:05,1443470710,59.83585,-3.78559,3,3,28/09/2015 20:05,1443470708,12.286,28,11,0,0,59.8605,-3.8105,3,3
70,28/09/2015 21:05,1443474309,59.83788,-3.71436,3,3,28/09/2015 21:05,1443474342,12.243,39,11,0,0,59.8638,-3.7794,3,3
71,28/09/2015 22:06,1443477990,59.88891,-3.64767,9,3,28/09/2015 22:05,1443477900,12.243,39,11,0,0,0,0,75,5
72,28/09/2015 23:05,1443481512,59.88691,-3.71899,2,2,28/09/2015 23:05,1443481543,12.243,39,11,0,0,59.875,-3.7312,3,5
73,29/09/2015 00:06,1443485162,59.76339,-6.06492,153,3,29/09/2015 00:05,1443485111,12.243,39,11,0,0,59.88,-3.721,54,4
74,29/09/2015 01:06,1443488784,59.88691,-3.71899,2,2,29/09/2015 01:05,1443488730,12.243,34,11,0,0,59.8834,-3.7205,75,5
75,29/09/2015 02:05,1443492308,59.93111,-3.22352,379,3,29/09/2015 02:05,1443492324,12.243,34,11,0,0,59.886,-3.7331,3,5
76,29/09/2015 03:05,1443495921,59.88891,-3.64767,3,2,29/09/2015 03:05,1443495907,12.2,34,11,0,0,59.8873,-3.751,3,5
77,29/09/2015 04:05,1443499507,59.90675,-2.93384,77,2,29/09/2015 04:05,1443499504,12.2,34,11,0,0,59.8857,-3.7683,3,5
78,29/09/2015 05:05,1443503107,59.88488,-3.79031,2,3,29/09/2015 05:05,1443503102,12.2,38,11,0,0,59.8847,-3.7829,3,5
79,29/09/2015 06:06,1443506782,59.88691,-3.71899,3,3,29/09/2015 06:05,1443506702,12.2,38,11,0,0,59.8871,-3.7825,58,4
80,29/09/2015 07:05,1443510311,59.88891,-3.64767,2,2,29/09/2015 07:05,1443510323,12.2,38,11,0,0,59.8906,-3.7592,3,5
81,29/09/2015 08:06,1443514011,59.88891,-3.64767,3,5,29/09/2015 08:05,1443513900,12.2,38,11,0,0,0,0,95,5
82,29/09/2015 09:05,1443517519,59.92189,-3.5808,6,3,29/09/2015 09:05,1443517503,12.2,35,11,0,0,59.8914,-3.6857,3,5
83,29/09/2015 10:05,1443521132,59.88891,-3.64767,5,2,29/09/2015 10:05,1443521111,12.2,35,11,0,0,59.8927,-3.6442,18,5
84,29/09/2015 11:05,1443524711,59.89087,-3.57633,7,1,29/09/2015 11:05,1443524712,12.157,35,11,0,0,59.8941,-3.6171,3,5
85,29/09/2015 12:06,1443528395,59.94369,-3.43792,15,3,29/09/2015 12:05,1443528340,12.2,35,11,0,0,59.8964,-3.6057,75,1
86,29/09/2015 13:05,1443531912,59.92381,-3.50936,4,2,29/09/2015 13:05,1443531936,12.157,38,11,0,0,59.9037,-3.6038,3,5
87,29/09/2015 14:06,1443535585,59.89087,-3.57633,2,3,29/09/2015 14:05,1443535547,12.157,38,11,0,0,59.9118,-3.6099,75,1
88,29/09/2015 15:05,1443539131,60.19286,-8.91633,312,3,29/09/2015 15:05,1443539143,12.157,38,11,0,0,59.9163,-3.6195,24,3
89,29/09/2015 16:05,1443542711,59.92381,-3.50936,2,3,29/09/2015 16:05,1443542713,12.157,38,11,0,0,59.9177,-3.6284,3,3
90,29/09/2015 17:05,1443546310,59.89279,-3.50499,7,3,29/09/2015 17:05,1443546318,12.157,39,11,0,0,59.9157,-3.634,3,5
91,29/09/2015 18:05,1443549908,59.93989,-3.5808,6,2,29/09/2015 18:05,1443549910,12.157,39,11,0,0,59.9125,-3.6321,3,3
92,29/09/2015 19:05,1443553510,59.89087,-3.57633,10,2,29/09/2015 19:05,1443553506,12.157,39,11,0,0,59.9108,-3.6232,3,5
93,29/09/2015 20:05,1443557110,59.89087,-3.57633,3,2,29/09/2015 20:05,1443557109,12.157,39,11,0,0,59.9113,-3.6038,3,4
94,29/09/2015 21:05,1443560712,59.89279,-3.50499,4,2,29/09/2015 21:05,1443560722,12.157,28,11,0,0,59.9133,-3.576,3,5
95,29/09/2015 22:05,1443564322,59.92381,-3.50936,7,3,29/09/2015 22:05,1443564338,12.157,28,11,0,0,59.9187,-3.5407,18,5
96,29/09/2015 23:06,1443567981,59.94181,-3.50936,2,3,29/09/2015 23:05,1443567933,12.157,28,11,0,0,59.9254,-3.5054,75,5
97,30/09/2015 00:05,1443571516,59.94369,-3.43792,3,2,30/09/2015 00:05,1443571527,12.157,28,11,0,0,59.9303,-3.474,3,3
98,30/09/2015 01:05,1443575112,59.97473,-3.44222,6,2,30/09/2015 01:05,1443575104,12.157,29,11,0,0,59.9332,-3.4594,3,5
99,30/09/2015 02:05,1443578711,59.85607,-5.79589,145,2,30/09/2015 02:05,1443578714,12.114,29,11,0,0,59.9339,-3.4606,3,5
100,30/09/2015 03:06,1443582382,59.92569,-3.43792,5,2,30/09/2015 03:05,1443582312,12.157,29,11,0,0,59.9343,-3.4754,75,5
101,30/09/2015 04:05,1443585910,59.94554,-3.36646,3,2,30/09/2015 04:05,1443585933,12.157,29,11,0,0,59.9356,-3.4993,3,5
102,30/09/2015 05:06,1443589581,59.89279,-3.50499,4,2,30/09/2015 05:05,1443589545,12.157,35,11,0,0,59.9343,-3.5218,75,5
103,30/09/2015 06:05,1443593119,59.94181,-3.50936,14,3,30/09/2015 06:05,1443593129,12.157,35,11,0,0,59.9336,-3.5347,3,5
104,30/09/2015 07:05,1443596710,59.92381,-3.50936,3,2,30/09/2015 07:05,1443596730,12.157,35,11,0,0,59.9335,-3.5333,3,5
105,30/09/2015 08:06,1443600396,59.93989,-3.5808,4,3,30/09/2015 08:05,1443600343,12.157,35,11,0,0,59.9316,-3.5168,75,5
106,30/09/2015 09:05,1443603919,59.94369,-3.43792,3,2,30/09/2015 09:05,1443603932,12.157,32,11,0,0,59.9311,-3.4909,3,5
107,30/09/2015 10:05,1443607530,59.89651,-3.36226,13,2,30/09/2015 10:05,1443607512,12.157,32,11,0,0,59.9291,-3.458,24,5
108,30/09/2015 11:05,1443611117,59.92754,-3.36646,2,2,30/09/2015 11:05,1443611143,12.157,32,11,0,0,59.9293,-3.4266,3,5
109,30/09/2015 12:06,1443614782,59.92569,-3.43792,3,2,30/09/2015 12:05,1443614709,12.157,32,11,0,0,59.9309,-3.4053,75,5
110,30/09/2015 13:05,1443618357,59.89651,-3.36226,4,2,30/09/2015 13:05,1443618311,12.157,32,11,0,0,59.9345,-3.393,49,4
111,30/09/2015 14:05,1443621927,59.94554,-3.36646,9,2,30/09/2015 14:05,1443621933,12.157,32,11,0,0,59.939,-3.3872,19,3
112,30/09/2015 15:05,1443625510,59.92754,-3.36646,4,2,30/09/2015 15:05,1443625512,12.157,32,11,0,0,59.9414,-3.3885,3,2
113,30/09/2015 16:05,1443629110,59.94554,-3.36646,3,2,30/09/2015 16:05,1443629111,12.2,32,11,0,0,59.942,-3.3941,3,5
114,30/09/2015 17:05,1443632707,59.97658,-3.37067,8,4,30/09/2015 17:05,1443632715,12.157,30,11,0,0,59.9389,-3.4067,3,5
115,30/09/2015 18:06,1443636379,59.94369,-3.43792,2,6,30/09/2015 18:05,1443636318,12.157,30,11,0,0,59.9357,-3.4193,75,5
116,30/09/2015 19:05,1443639910,60.02397,-5.31787,131,3,30/09/2015 19:05,1443639944,12.157,30,11,0,0,59.9339,-3.4237,3,4
117,30/09/2015 20:05,1443643509,59.94554,-3.36646,3,2,30/09/2015 20:05,1443643511,12.157,30,11,0,0,59.936,-3.4155,3,5
118,30/09/2015 21:05,1443647107,59.89831,-3.29088,4,3,30/09/2015 21:05,1443647116,12.157,32,11,0,0,59.9406,-3.3931,3,4
119,30/09/2015 22:06,1443650780,59.94554,-3.36646,14,2,30/09/2015 22:05,1443650744,12.157,32,11,0,0,59.9474,-3.3614,75,3
120,30/09/2015 23:06,1443654381,59.98016,-3.22755,3,3,30/09/2015 23:05,1443654312,12.157,32,11,0,0,59.9555,-3.322,75,5
121,01/10/2015 00:05,1443657909,59.98016,-3.22755,3,3,01/10/2015 00:05,1443657945,12.157,32,11,0,0,59.9634,-3.2755,3,5
122,01/10/2015 01:05,1443661512,59.98016,-3.22755,2,1,01/10/2015 01:05,1443661552,12.157,35,11,0,0,59.9691,-3.2322,3,5
123,01/10/2015 02:06,1443665184,59.98358,-3.08438,9,2,01/10/2015 02:05,1443665122,12.157,35,11,0,0,59.9705,-3.2043,75,5
124,01/10/2015 03:05,1443668711,59.95084,-3.15203,6,2,01/10/2015 03:05,1443668713,12.157,35,11,0,0,59.9722,-3.1946,3,5
125,01/10/2015 04:05,1443672320,59.94911,-3.22352,3,2,01/10/2015 04:05,1443672300,12.157,35,11,0,0,0,0,3,5
126,01/10/2015 05:05,1443675911,59.98189,-3.15597,3,2,01/10/2015 05:05,1443675940,12.157,31,11,0,0,59.9744,-3.2185,3,5
127,01/10/2015 06:05,1443679511,59.90054,-4.2945,88,2,01/10/2015 06:05,1443679523,12.157,31,11,0,0,59.9756,-3.2367,3,4
128,01/10/2015 07:05,1443683112,60.02917,-3.23159,6,2,01/10/2015 07:05,1443683109,12.157,31,11,0,0,59.9778,-3.2492,3,5
129,01/10/2015 08:05,1443686716,59.99985,-3.15597,3,2,01/10/2015 08:05,1443686739,12.157,31,11,0,0,59.9843,-3.2536,3,5
130,01/10/2015 09:05,1443690310,59.98189,-3.15597,2,4,01/10/2015 09:05,1443690342,12.114,38,11,0,0,59.9974,-3.2443,3,5
131,01/10/2015 10:06,1443693982,59.99985,-3.15597,5,3,01/10/2015 10:05,1443693945,12.157,38,11,0,0,60.0115,-3.2146,75,5
132,01/10/2015 11:05,1443697511,60.03091,-3.15992,3,2,01/10/2015 11:05,1443697502,12.157,38,11,0,0,60.0221,-3.1638,3,5
133,01/10/2015 12:05,1443701114,60.0032,-3.01279,3,2,01/10/2015 12:05,1443701111,12.114,38,11,0,0,60.0268,-3.1078,3,5
134,01/10/2015 13:05,1443704700,60.03426,-3.01656,4,2,01/10/2015 13:05,1443704725,12.114,31,11,0,0,60.0268,-3.0558,3,3
135,01/10/2015 14:06,1443708392,59.98843,-2.86957,10,2,01/10/2015 14:05,1443708338,12.114,35,11,0,0,60.026,-3.0167,88,2
136,01/10/2015 15:05,1443711926,60.00481,-2.94118,3,4,01/10/2015 15:05,1443711900,12.071,35,11,0,0,0,0,3,5
137,01/10/2015 16:05,1443715521,60.03426,-3.01656,3,2,01/10/2015 16:05,1443715542,12.071,35,11,0,0,60.0299,-2.9928,3,5
138,01/10/2015 17:05,1443719108,60.03426,-3.01656,3,3,01/10/2015 17:05,1443719100,11.899,36,11,0,0,0,0,3,5
139,01/10/2015 18:06,1443722782,60.03588,-2.94487,2,549,01/10/2015 18:05,1443722700,11.985,36,11,0,0,0,0,75,5
140,01/10/2015 19:06,1443726383,60.03588,-2.94487,5,2,01/10/2015 19:05,1443726300,11.942,36,11,0,0,0,0,75,5
141,01/10/2015 20:05,1443729922,60.06534,-3.02034,2,2,01/10/2015 20:05,1443729938,11.899,36,11,0,0,60.0652,-3.0113,18,5
142,01/10/2015 21:06,1443733614,60.06696,-2.94856,4,3,01/10/2015 21:05,1443733513,11.899,36,11,0,0,60.0772,-2.9893,103,1
143,01/10/2015 22:06,1443737165,60.06855,-2.87677,4,2,01/10/2015 22:05,1443737100,11.942,36,11,0,0,0,0,60,5
144,01/10/2015 23:05,1443740725,60.11598,-2.95226,3,4,01/10/2015 23:05,1443740759,11.942,36,11,0,0,0,0,18,5
145,02/10/2015 00:06,1443744364,59.91389,-10.38181,428,2,02/10/2015 00:05,1443744302,11.942,36,11,0,0,60.09,-2.8359,54,4
146,02/10/2015 01:05,1443747929,60.0405,-2.72973,5,2,02/10/2015 01:05,1443747940,11.899,42,11,0,0,60.0813,-2.7747,23,5
147,02/10/2015 02:05,1443751507,60.09098,-2.66133,7,2,02/10/2015 02:05,1443751502,11.899,42,11,0,0,60.0704,-2.7374,3,5
148,02/10/2015 03:05,1443755111,60.09098,-2.66133,5,2,02/10/2015 03:05,1443755113,11.899,42,11,0,0,60.0612,-2.7228,3,5
149,02/10/2015 04:05,1443758731,60.04196,-2.658,4,2,02/10/2015 04:05,1443758700,11.899,42,11,0,0,0,0,23,1
150,02/10/2015 05:06,1443762403,60.07159,-2.73315,2,4,02/10/2015 05:05,1443762315,11.942,34,11,0,0,60.0588,-2.7483,91,5
151,02/10/2015 06:05,1443765952,60.08801,-2.80496,3,3,02/10/2015 06:05,1443765900,11.942,34,11,0,0,0,0,34,2
152,02/10/2015 07:06,1443769617,60.08801,-2.80496,4,2,02/10/2015 07:05,1443769503,11.942,34,11,0,0,60.0765,-2.7943,109,5
153,02/10/2015 08:06,1443773217,60.08951,-2.73315,4,5,02/10/2015 08:05,1443773111,11.942,34,11,0,0,60.0888,-2.8015,99,1
154,02/10/2015 09:05,1443776710,60.12061,-2.73658,5,3,02/10/2015 09:05,1443776720,11.942,33,11,0,0,60.1013,-2.7913,3,5
155,02/10/2015 10:05,1443780310,60.08951,-2.73315,3,2,02/10/2015 10:05,1443780329,11.942,33,11,0,0,60.1106,-2.7613,3,3
156,02/10/2015 11:05,1443783913,60.08951,-2.73315,4,3,02/10/2015 11:05,1443783926,11.942,33,11,0,0,60.1134,-2.7222,3,5
157,02/10/2015 12:06,1443787606,60.09934,0.35989,198,2,02/10/2015 12:05,1443787502,11.985,33,11,0,0,60.1092,-2.6792,91,5
158,02/10/2015 13:06,1443791190,60.09379,-2.51767,2,3,02/10/2015 13:05,1443791114,11.985,34,11,0,0,60.0993,-2.6436,75,5
159,02/10/2015 14:06,1443794779,60.09098,-2.66133,3,2,02/10/2015 14:05,1443794745,11.985,34,11,0,0,60.0886,-2.6248,75,5
160,02/10/2015 15:05,1443798329,60.04196,-2.658,13,4,02/10/2015 15:05,1443798345,11.985,34,11,0,0,60.0801,-2.622,19,5
161,02/10/2015 16:06,1443801982,60.04339,-2.58626,3,2,02/10/2015 16:05,1443801916,11.985,34,10.9,0,0,60.0756,-2.6358,75,1
162,02/10/2015 17:05,1443805510,60.0924,-2.5895,2,2,02/10/2015 17:05,1443805500,11.985,31,10.9,0,0,0,0,3,5
163,02/10/2015 18:05,1443809125,60.12351,-2.59275,5,2,02/10/2015 18:05,1443809152,11.942,31,11,0,0,60.0845,-2.6928,18,5
164,02/10/2015 19:05,1443812723,60.27796,0.21703,186,2,02/10/2015 19:05,1443812738,11.985,31,11,0,0,60.0972,-2.7238,18,1
165,02/10/2015 20:05,1443816310,60.09098,-2.66133,3,2,02/10/2015 20:05,1443816311,11.985,31,11,0,0,60.1119,-2.743,3,5
166,02/10/2015 21:05,1443819910,60.12208,-2.66467,4,3,02/10/2015 21:05,1443819902,11.985,31,10.9,0,0,60.1276,-2.7461,3,4
167,02/10/2015 22:06,1443823582,60.12208,-2.66467,3,2,02/10/2015 22:05,1443823542,11.985,31,11,0,0,60.1415,-2.7295,75,5
168,02/10/2015 23:06,1443827181,60.12061,-2.73658,3,2,02/10/2015 23:05,1443827109,11.985,31,11,0,0,60.1484,-2.6977,75,5
169,03/10/2015 00:06,1443830800,60.20074,-2.74347,15,2,03/10/2015 00:05,1443830708,11.985,31,11,0,0,60.1511,-2.6579,94,3
170,03/10/2015 01:06,1443834381,60.1739,-2.524,3,3,03/10/2015 01:05,1443834306,11.985,31,11,0,0,60.1484,-2.6171,75,5
171,03/10/2015 02:06,1443837988,60.14278,-2.52083,2,2,03/10/2015 02:05,1443837910,11.985,31,11,0,0,60.1402,-2.5826,75,4
172,03/10/2015 03:06,1443841590,60.1249,-2.52083,4,3,03/10/2015 03:05,1443841545,11.985,31,10.9,0,0,60.1298,-2.5619,75,4
173,03/10/2015 04:05,1443845124,60.1739,-2.524,4,2,03/10/2015 04:05,1443845113,11.985,31,11,0,0,60.1254,-2.5609,19,4
174,03/10/2015 05:06,1443848782,60.1249,-2.52083,5,2,03/10/2015 05:05,1443848736,11.985,34,10.9,0,0,60.1272,-2.5725,75,5
175,03/10/2015 06:06,1443852400,60.14278,-2.52083,4,4,03/10/2015 06:05,1443852312,11.985,34,11,0,0,60.1339,-2.5928,92,1
176,03/10/2015 07:06,1443855983,60.12351,-2.59275,5,2,03/10/2015 07:05,1443855910,11.942,34,11,0,0,60.1452,-2.6126,75,5
177,03/10/2015 08:06,1443859588,60.16655,-2.884,61,2,03/10/2015 08:05,1443859514,11.942,34,11,0,0,60.1596,-2.6263,75,4
178,03/10/2015 09:06,1443863181,60.17251,-2.59602,2,2,03/10/2015 09:05,1443863147,11.942,35,10.9,0,0,60.1739,-2.6295,75,3
179,03/10/2015 10:05,1443866720,60.0671,-0.64698,138,2,03/10/2015 10:05,1443866738,11.985,35,11,0,0,60.1877,-2.6206,3,5
180,03/10/2015 11:05,1443870308,60.20504,-2.52718,2,2,03/10/2015 11:05,1443870315,11.942,35,10.9,0,0,60.1986,-2.5987,3,5
181,03/10/2015 12:05,1443873917,60.20365,-2.59928,5,3,03/10/2015 12:05,1443873923,11.985,35,11,0,0,60.2034,-2.5674,3,5
182,03/10/2015 13:05,1443877513,60.17251,-2.59602,11,2,03/10/2015 13:05,1443877539,11.942,44,11,0,0,60.203,-2.5317,3,5
183,03/10/2015 14:05,1443881113,60.17525,-2.45197,4,3,03/10/2015 14:05,1443881109,11.985,44,11,0,0,60.1973,-2.4983,3,1
184,03/10/2015 15:05,1443884713,60.1739,-2.524,6,2,03/10/2015 15:05,1443884736,11.942,44,11,0,0,60.1884,-2.471,3,4
185,03/10/2015 16:05,1443888312,60.17525,-2.45197,4,3,03/10/2015 16:05,1443888317,11.942,44,11,0,0,60.1805,-2.4565,3,5
186,03/10/2015 17:06,1443891980,60.17657,-2.37994,3,2,03/10/2015 17:05,1443891944,11.942,33,10.9,0,0,60.177,-2.4557,75,4
187,03/10/2015 18:06,1443895580,60.20639,-2.45506,3,3,03/10/2015 18:05,1443895532,11.985,33,10.9,0,0,60.1819,-2.4619,75,5
188,03/10/2015 19:06,1443899181,60.1739,-2.524,13,2,03/10/2015 19:05,1443899144,11.985,33,10.9,0,0,60.1925,-2.4733,75,3
189,03/10/2015 20:06,1443902784,60.20771,-2.38294,2,2,03/10/2015 20:05,1443902732,11.942,33,11,0,0,60.2058,-2.4831,75,5
190,03/10/2015 21:06,1443906380,60.43523,0.94515,203,2,03/10/2015 21:05,1443906344,11.985,29,10.9,0,0,60.2211,-2.493,75,5
191,03/10/2015 22:06,1443909980,60.30299,-2.53356,12,3,03/10/2015 22:05,1443909939,11.985,29,10.9,0,0,60.2341,-2.5009,75,4
192,03/10/2015 23:06,1443913582,60.25538,-2.45816,3,2,03/10/2015 23:05,1443913508,11.985,29,10.9,0,0,60.244,-2.4953,75,5
193,04/10/2015 00:05,1443917119,60.22424,-2.45506,6,2,04/10/2015 00:05,1443917112,11.985,29,11,0,0,60.2502,-2.4819,3,2
194,04/10/2015 01:06,1443920811,60.2567,-2.38594,3,2,04/10/2015 01:05,1443920710,11.985,32,10.9,0,0,60.2517,-2.4616,108,5
195,04/10/2015 02:06,1443924382,60.2567,-2.38594,5,2,04/10/2015 02:05,1443924345,11.942,32,10.9,0,0,60.2485,-2.4404,75,4
196,04/10/2015 03:06,1443927980,60.22555,-2.38294,6,2,04/10/2015 03:05,1443927951,11.942,32,10.9,0,0,60.2418,-2.425,75,4
197,04/10/2015 04:06,1443931581,60.22555,-2.38294,3,2,04/10/2015 04:05,1443931510,11.942,32,10.9,0,0,60.2342,-2.4203,75,5
198,04/10/2015 05:05,1443935107,60.22555,-2.38294,3,4,04/10/2015 05:05,1443935132,11.942,30,10.9,0,0,60.2274,-2.4247,3,3
199,04/10/2015 06:05,1443938711,60.22683,-2.31081,5,2,04/10/2015 06:05,1443938714,11.942,30,10.9,0,0,60.2239,-2.4376,3,5
200,04/10/2015 07:05,1443942312,60.2567,-2.38594,5,2,04/10/2015 07:05,1443942310,11.942,30,11,0,0,60.2246,-2.4553,3,3
201,04/10/2015 08:06,1443945994,60.39248,-5.37841,181,2,04/10/2015 08:05,1443945916,11.942,30,10.9,0,0,60.2293,-2.4761,75,3
202,04/10/2015 09:05,1443949511,60.2567,-2.38594,2,2,04/10/2015 09:05,1443949543,11.942,27,10.9,0,0,60.2372,-2.4941,3,5
203,04/10/2015 10:05,1443953107,60.23154,-2.02221,67,3,04/10/2015 10:05,1443953137,11.942,27,10.9,0,0,60.2477,-2.5058,3,5
204,04/10/2015 11:05,1443956711,60.25403,-2.53036,2,2,04/10/2015 11:05,1443956711,11.985,27,10.9,0,0,60.2581,-2.508,3,3
205,04/10/2015 12:05,1443960308,60.25538,-2.45816,3,2,04/10/2015 12:05,1443960345,12.028,27,10.9,0,0,60.2685,-2.5007,3,5
206,04/10/2015 13:05,1443963925,60.30435,-2.46126,5,2,04/10/2015 13:05,1443963914,12.028,27,10.9,0,0,60.2757,-2.4854,18,5
207,04/10/2015 14:05,1443967509,60.25538,-2.45816,9,4,04/10/2015 14:05,1443967509,12.028,27,10.9,0,0,60.279,-2.4662,3,3
208,04/10/2015 15:06,1443971195,60.2567,-2.38594,6,2,04/10/2015 15:05,1443971151,12.028,27,10.9,0,0,60.2784,-2.4468,89,5
209,04/10/2015 16:06,1443974794,60.30299,-2.53356,4,2,04/10/2015 16:05,1443974712,12.028,27,10.9,0,0,60.2769,-2.4336,75,3
210,04/10/2015 17:06,1443978411,60.28655,-2.46126,2,2,04/10/2015 17:05,1443978308,12.028,28,10.9,0,0,60.2771,-2.4276,103,3
211,04/10/2015 18:05,1443981909,60.30567,-2.38896,5,2,04/10/2015 18:05,1443981939,12.028,28,10.9,0,0,60.2783,-2.4283,3,5
212,04/10/2015 19:06,1443985583,60.31056,-2.09966,60,2,04/10/2015 19:05,1443985532,11.985,28,10.9,0,0,60.2813,-2.4341,75,5
213,04/10/2015 20:05,1443989109,60.28655,-2.46126,2,1,04/10/2015 20:05,1443989122,11.985,28,10.9,0,0,60.2872,-2.4433,3,5
214,04/10/2015 21:06,1443992782,60.2567,-2.38594,4,7,04/10/2015 21:05,1443992713,11.942,26,10.9,0,0,60.2953,-2.4512,75,5
215,04/10/2015 22:05,1443996309,60.30567,-2.38896,2,2,04/10/2015 22:05,1443996313,11.942,26,10.9,0,0,60.3049,-2.4546,3,5
216,04/10/2015 23:06,1443999981,60.33552,-2.46437,7,3,04/10/2015 23:05,1443999908,11.942,26,10.9,0,0,60.3161,-2.4518,75,4
217,05/10/2015 00:06,1444003592,60.33552,-2.46437,4,3,05/10/2015 00:05,1444003509,11.899,26,10.9,0,0,60.3257,-2.4417,75,3
218,05/10/2015 01:06,1444007191,60.30435,-2.46126,5,2,05/10/2015 01:05,1444007144,11.899,30,10.9,0,0,60.3334,-2.4248,75,5
219,05/10/2015 02:06,1444010782,60.38448,-2.46749,8,2,05/10/2015 02:05,1444010732,11.899,30,10.9,0,0,60.339,-2.4053,75,5
220,05/10/2015 03:06,1444014380,60.38954,-2.1775,13,1,05/10/2015 03:05,1444014302,11.856,30,10.9,0,0,60.3418,-2.3892,75,5
221,05/10/2015 04:06,1444018003,60.33813,-2.31957,2,2,05/10/2015 04:05,1444017913,11.856,30,10.9,0,0,60.3434,-2.3789,91,3
222,05/10/2015 05:05,1444021507,60.33685,-2.39198,3,2,05/10/2015 05:05,1444021509,11.856,29,10.9,0,0,60.344,-2.3763,3,5
223,05/10/2015 06:05,1444025119,60.33685,-2.39198,3,2,05/10/2015 06:05,1444025131,11.856,29,10.9,0,0,60.3445,-2.3801,3,5
224,05/10/2015 07:05,1444028720,60.38708,-2.32251,9,3,05/10/2015 07:05,1444028703,11.856,29,10.9,0,0,60.3464,-2.3875,3,4
225,05/10/2015 08:07,1444032474,60.3858,-2.39501,3,2,05/10/2015 08:05,1444032312,11.856,29,10.9,0,0,60.3505,-2.3965,159,3
226,05/10/2015 09:06,1444035986,60.3559,-2.31957,4,2,05/10/2015 09:05,1444035903,11.856,29,10.9,0,0,60.3571,-2.4078,75,5
227,05/10/2015 10:06,1444039595,60.4761,-4.44335,130,2,05/10/2015 10:05,1444039522,11.856,29,10.9,0,0,60.3651,-2.4153,91,5
228,05/10/2015 11:05,1444043109,60.33685,-2.39198,3,2,05/10/2015 11:05,1444043112,11.856,29,10.9,0,0,60.3745,-2.4213,3,5
229,05/10/2015 12:05,1444046710,60.34601,-1.81255,111,3,05/10/2015 12:05,1444046709,11.856,29,10.9,0,0,60.384,-2.4234,3,5
230,05/10/2015 13:06,1444050382,60.38708,-2.32251,2,2,05/10/2015 13:05,1444050334,11.856,33,10.9,0,0,60.3922,-2.4207,75,5
231,05/10/2015 14:05,1444053907,60.35391,-1.08776,98,2,05/10/2015 14:05,1444053920,11.856,33,10.9,0,0,60.3972,-2.4126,3,5
232,05/10/2015 15:05,1444057544,60.46324,-2.54642,9,2,05/10/2015 15:05,1444057524,11.856,33,10.9,0,0,60.4021,-2.4031,28,3
233,05/10/2015 16:05,1444061107,60.38708,-2.32251,3,3,05/10/2015 16:05,1444061112,11.856,33,10.9,0,0,60.4049,-2.3921,3,5
234,05/10/2015 17:05,1444064749,60.46723,-2.32841,6,3,05/10/2015 17:05,1444064714,11.856,32,10.9,0,0,60.4071,-2.384,35,5
235,05/10/2015 18:05,1444068313,60.417,-2.39804,2,2,05/10/2015 18:05,1444068328,11.856,32,10.9,0,0,60.4084,-2.3813,3,5
236,05/10/2015 19:05,1444071937,60.3298,-3.98755,142,2,05/10/2015 19:05,1444071911,11.856,32,10.9,0,0,60.4104,-2.3831,22,1
237,05/10/2015 20:05,1444075510,60.38708,-2.32251,3,3,05/10/2015 20:05,1444075514,11.856,32,10.9,0,0,60.4128,-2.3908,3,2
238,05/10/2015 21:05,1444079127,60.47794,-1.60124,76,2,05/10/2015 21:05,1444079112,11.856,31,10.9,0,0,60.4204,-2.4037,24,5
239,05/10/2015 22:05,1444082729,60.41829,-2.32545,3,2,05/10/2015 22:05,1444082700,11.856,31,10.9,0,0,0,0,22,5
240,05/10/2015 23:05,1444086315,60.48309,-1.09191,104,2,05/10/2015 23:05,1444086359,11.856,31,10.9,0,0,0,0,3,5
241,06/10/2015 00:06,1444089983,60.46594,-2.40108,9,2,06/10/2015 00:05,1444089900,11.856,31,10.9,0,0,0,0,75,5
242,06/10/2015 01:06,1444093588,60.46723,-2.32841,3,2,06/10/2015 01:05,1444093558,11.856,50,10.9,0,0,0,0,68,4
243,06/10/2015 02:06,1444097184,60.46723,-2.32841,2,3,06/10/2015 02:05,1444097100,11.856,50,10.9,0,0,0,0,75,5
244,06/10/2015 03:05,1444100727,60.46461,-2.47376,4,2,06/10/2015 03:05,1444100700,11.856,50,10.9,0,0,0,0,18,5
245,06/10/2015 04:06,1444104394,60.46723,-2.32841,6,2,06/10/2015 04:05,1444104300,11.856,50,10.9,0,0,0,0,75,4
246,06/10/2015 05:05,1444107920,60.46594,-2.40108,14,2,06/10/2015 05:05,1444107900,11.856,37,10.9,0,0,0,0,3,1
247,06/10/2015 06:05,1444111510,60.49846,-2.33137,3,3,06/10/2015 06:05,1444111559,11.856,37,10.9,0,0,60.4696,-2.4069,3,5
248,06/10/2015 07:05,1444115110,60.46594,-2.40108,3,2,06/10/2015 07:05,1444115123,11.856,37,10.9,0,0,60.4747,-2.4067,3,5
249,06/10/2015 08:05,1444118724,60.76178,-7.07034,271,4,06/10/2015 08:05,1444118709,11.856,37,10.9,0,0,60.4807,-2.4079,16,5
250,06/10/2015 09:05,1444122310,60.51485,-2.40414,3,2,06/10/2015 09:05,1444122301,11.856,37,10.9,0,0,0,0,3,5
251,06/10/2015 10:06,1444126001,60.71309,-7.06131,279,4,06/10/2015 10:05,1444125914,11.813,37,10.9,0,0,60.571,-2.8236,93,5
252,06/10/2015 11:05,1444129512,60.49846,-2.33137,2,2,06/10/2015 11:05,1444129500,11.813,37,10.9,0,0,0,0,3,5
253,06/10/2015 12:05,1444133112,60.55503,-3.43072,84,2,06/10/2015 12:05,1444133102,11.813,37,10.9,0,0,0,0,3,5
254,06/10/2015 13:05,1444136708,60.49584,-2.4769,8,2,06/10/2015 13:05,1444136700,11.77,34,10.9,0,0,0,0,3,4
255,06/10/2015 14:06,1444140388,60.60575,-3.36217,103,2,06/10/2015 14:05,1444140300,11.77,34,10.9,0,0,0,0,75,2
256,06/10/2015 15:06,1444143981,60.57735,-2.41026,4,5,06/10/2015 15:05,1444143900,11.77,34,10.9,0,0,0,0,75,2
257,06/10/2015 16:05,1444147509,60.54338,-2.5529,9,2,06/10/2015 16:05,1444147500,11.77,34,10.9,0,0,0,0,3,1
258,06/10/2015 17:06,1444151180,60.54738,-2.33433,3,5,06/10/2015 17:05,1444151143,11.77,46,10.9,0,0,60.552,-2.3695,75,5
259,06/10/2015 18:06,1444154779,60.48706,0.36401,162,3,06/10/2015 18:05,1444154711,11.727,46,10.9,0,0,60.5587,-2.3609,75,5
260,06/10/2015 19:05,1444158330,60.54738,-2.33433,6,2,06/10/2015 19:05,1444158339,11.727,46,10.9,0,0,60.5652,-2.3538,22,3
261,06/10/2015 20:05,1444161921,60.54864,-2.26146,3,3,06/10/2015 20:05,1444161900,11.727,46,10.9,0,0,0,0,3,4